Retour au catalogue

STARLINK-34161

ActifCommunicationsVLEO
NORAD 64017·PAYLOAD·🇺🇸 United States

Lancé May 14, 2025 depuis Cape Canaveral Space Force Station

Loading…

Prochains Passages (prochaines 24 heures)

TLE

FraisSource: CelesTrak SupGP

Époque: Sep 15, 2026, 03:10 UTC

1 64017C 25101Z   26258.13243056  .00024888  00000+0  90124-3 0  2580
2 64017  43.0038   7.9464 0001616 269.4439 306.0288 15.27573526    10

Suivez STARLINK-34161 en temps réel avec AllMySat

Download on the App Store